Theta_e
292 293 293 294 295 297 298 298 298 299 300 301 303 304 304 306 308 312 318 320 325 331 339 343 345 346 346 344 344 346 346 345 343 342 342 342 342 341 340 339 339 339 338
292 292 292 294 294 296 297 297 297 297 298 300 301 303 303 304 307 308 311 316 321 325 329 337 341 343 346 346 344 345 346 346 343 342 341 341 341 340 340 339 338 338 338
292 291 292 292 293 294 295 296 297 298 298 300 300 302 303 304 305 308 310 314 317 320 326 332 336 340 342 345 346 346 346 346 344 342 341 341 340 340 339 338 338 337 337
293 291 290 290 292 294 295 295 295 295 295 296 297 298 300 302 303 305 308 312 319 320 321 326 330 335 338 340 343 345 345 344 343 342 341 340 340 340 339 338 337 337 336
292 290 290 291 292 293 293 293 294 295 294 295 296 297 298 298 300 302 304 307 312 315 316 318 320 322 329 335 340 343 344 344 342 340 340 339 340 339 339 338 338 337 336
291 290 290 290 292 291 291 291 292 294 294 295 295 295 295 297 298 300 301 303 306 311 312 311 312 315 321 329 332 339 342 343 342 339 338 339 339 339 338 338 338 337 336
290 289 289 289 290 289 288 290 291 292 292 294 293 292 293 295 296 298 301 302 303 304 302 303 305 309 315 323 330 334 339 341 342 340 338 338 338 338 338 338 338 338 337
289 289 288 288 288 288 288 290 291 291 293 294 291 291 288 291 295 297 300 300 300 301 303 304 304 304 305 307 313 325 333 337 339 340 339 337 337 337 337 339 339 339 338
288 288 287 287 287 287 288 289 290 291 290 292 294 292 288 288 290 293 296 297 298 300 296 297 299 300 300 301 304 306 313 322 334 336 336 333 332 332 332 334 338 336 337
286 287 287 286 286 287 287 289 290 289 290 288 291 292 293 292 288 287 293 295 297 293 292 292 292 292 293 294 298 300 304 308 312 322 330 332 332 333 334 334 335 334 335
285 285 285 284 286 287 287 287 287 286 288 288 288 288 289 289 290 288 285 290 294 295 295 290 290 289 289 290 292 297 301 304 307 309 314 322 328 331 332 332 333 334 333
282 283 284 284 283 284 285 285 286 286 287 288 288 287 287 287 287 288 287 288 289 291 293 290 288 289 289 289 292 294 297 300 303 306 309 312 317 322 325 327 328 330 332
280 282 284 284 284 284 284 284 284 284 284 285 287 287 288 287 288 288 289 287 287 290 291 291 288 287 286 288 290 292 294 298 301 303 306 309 313 317 320 323 326 328 329
281 283 283 283 283 283 283 284 283 283 284 284 283 284 284 285 286 287 287 287 285 287 289 289 281 283 286 287 289 291 291 294 298 304 306 308 310 314 316 319 322 323 325
282 282 282 281 282 282 283 283 282 281 282 283 283 284 284 284 285 286 287 288 286 283 286 291 288 285 286 286 287 287 288 292 296 300 303 309 310 312 315 317 319 321 324
281 281 281 281 281 282 281 281 280 281 282 282 283 283 283 284 285 285 286 287 288 287 285 289 288 285 285 285 286 286 286 289 293 296 299 304 309 311 314 317 318 320 320
280 280 281 281 281 281 281 281 281 279 280 281 282 282 281 283 284 285 286 287 287 288 286 289 285 284 284 283 285 285 285 286 288 293 295 298 302 306 310 312 313 313 314
280 280 280 281 281 281 280 278 278 280 280 279 280 281 281 283 283 285 285 285 285 287 288 287 286 283 282 282 281 282 282 284 285 290 293 294 296 298 300 303 305 307 307
280 280 281 280 280 280 280 280 280 280 279 279 280 280 280 280 280 282 283 284 285 285 287 287 286 282 281 281 281 281 281 281 282 285 289 290 292 294 295 295 297 298 299
280 280 281 280 280 281 282 282 281 272 273 273 278 280 280 279 279 281 283 283 284 284 285 285 284 284 282 280 279 280 280 280 281 282 283 284 287 289 291 292 291 293 295
280 280 276 273 275 273 276 275 274 270 271 272 273 278 280 280 281 282 282 281 283 283 284 283 282 281 280 278 278 280 279 279 278 278 279 280 280 282 283 285 287 290 292
270 269 270 270 271 275 281 284 279 269 269 272 273 274 279 280 280 281 283 284 283 282 282 282 282 281 281 280 280 279 278 277 279 278 277 278 278 279 280 281 286 287 288
269 270 270 270 271 270 281 283 283 273 271 271 273 276 277 279 278 280 280 282 281 284 283 281 281 281 280 280 279 278 277 277 277 275 276 277 276 277 278 280 285 286 286
272 273 274 274 275 277 281 283 283 278 276 276 276 276 275 276 277 280 279 279 279 279 280 280 279 279 279 279 280 279 278 275 274 275 276 276 274 275 277 278 281 285 285
273 274 276 275 275 276 280 281 282 278 277 277 277 277 277 278 281 283 277 277 277 276 279 281 282 283 284 283 280 278 276 277 276 274 274 275 274 275 275 275 277 282 284
276 276 276 275 276 276 279 281 281 279 276 275 276 277 279 279 282 283 277 275 274 275 275 273 274 276 276 276 279 277 277 275 275 274 274 274 273 274 275 275 275 275 276
Wind_Speed
3 4 4 4 4 4 4 4 4 5 6 7 7 7 8 8 8 6 5 12 14 20 21 26 26 26 25 24 24 24 23 23 22 21 21 22 22 22 22 22 22 22 21
2 2 4 4 4 4 5 4 4 4 5 6 7 8 9 8 8 8 7 8 13 15 19 22 26 28 28 26 26 26 26 25 24 24 23 23 24 24 24 23 23 23 23
3 4 3 3 4 4 6 5 5 4 5 6 8 8 8 8 8 8 8 7 9 11 13 19 23 26 28 29 28 27 28 27 26 24 24 25 24 25 25 25 25 25 25
4 4 3 3 4 4 4 4 4 3 4 5 6 7 8 9 10 11 9 8 6 6 8 14 17 22 25 30 30 29 29 29 28 27 26 26 26 26 26 27 26 26 27
4 4 4 4 5 4 3 4 4 4 3 4 7 8 8 9 10 10 11 11 10 8 5 11 15 17 22 27 31 32 30 29 29 28 26 27 27 27 27 27 28 28 28
5 4 4 5 4 4 5 6 6 6 4 6 9 9 8 8 9 9 11 10 11 11 8 7 7 9 17 22 28 32 31 30 29 28 27 29 27 27 27 28 29 30 30
4 4 3 4 4 4 5 6 5 7 4 4 8 9 6 13 10 8 9 9 9 5 5 5 6 7 9 21 23 26 31 31 29 28 29 30 27 24 25 27 29 31 31
4 4 4 4 4 3 5 7 8 5 4 5 5 8 6 8 2 6 5 4 7 4 4 9 10 10 8 7 13 22 26 31 29 27 30 24 19 19 21 25 26 31 33
5 4 4 3 4 4 5 6 7 9 5 4 7 4 5 4 13 6 12 8 6 5 5 7 8 8 6 6 9 12 19 18 26 27 19 13 18 20 24 26 27 23 29
5 4 4 4 4 3 5 6 7 7 7 6 5 6 7 9 6 11 3 10 11 7 7 7 8 9 7 6 8 10 14 18 19 15 19 22 26 26 25 25 25 24 23
4 5 4 4 4 4 5 6 7 8 7 7 5 6 7 7 8 9 14 7 9 8 9 7 7 8 5 6 6 8 13 16 16 16 14 15 15 17 23 24 25 24 24
3 4 5 4 4 5 6 5 7 9 7 7 7 8 8 7 8 7 9 12 12 11 11 7 7 7 5 5 7 10 11 14 18 17 17 18 18 20 22 24 27 26 26
3 5 6 6 5 6 8 8 8 9 10 8 9 8 8 10 10 10 9 9 10 8 6 9 5 5 4 4 4 8 10 12 14 17 21 22 21 22 23 26 26 27 27
5 6 5 6 8 8 7 7 6 6 8 7 9 9 8 8 8 8 9 8 10 10 9 12 2 4 3 3 4 8 4 10 12 15 19 25 25 23 23 23 26 27 27
5 5 6 7 7 7 7 6 7 11 10 9 9 9 9 8 8 8 9 8 8 8 11 6 3 3 1 3 6 3 3 7 15 17 21 21 25 26 24 22 24 25 26
5 6 6 7 7 6 6 6 6 8 9 8 7 10 10 9 9 9 9 9 9 9 10 2 3 2 3 2 5 4 5 7 12 18 22 20 21 22 21 19 16 15 11
5 6 6 6 7 7 6 6 8 8 10 10 9 9 11 11 8 8 8 8 9 9 11 7 3 1 3 3 4 3 5 4 6 17 21 23 21 13 6 14 15 12 11
4 6 6 6 6 7 7 6 8 8 8 9 9 9 10 6 9 9 7 10 9 9 8 11 2 2 3 1 4 2 3 4 5 13 15 19 21 22 21 17 11 11 12
5 6 6 5 6 7 7 6 6 8 8 8 8 8 8 6 7 7 9 8 7 6 8 6 3 2 2 2 2 2 1 2 3 10 12 15 16 18 18 19 18 16 15
5 5 5 5 6 6 6 5 5 5 6 5 6 5 6 6 7 8 8 8 8 7 5 3 2 2 2 1 1 3 3 1 1 3 5 7 9 13 15 15 15 14 13
4 4 4 5 6 4 4 4 2 4 5 6 5 5 4 6 12 12 7 8 7 6 5 2 1 1 2 1 3 1 2 1 1 1 2 2 3 3 5 7 7 7 10
5 4 5 5 6 4 11 11 7 3 4 4 5 5 5 5 8 13 15 14 11 7 6 3 2 3 2 3 2 2 1 0 3 1 1 1 2 2 3 3 5 4 7
4 5 6 5 6 5 11 11 10 3 4 5 5 5 6 4 6 5 7 9 10 14 9 6 4 2 2 1 0 2 2 1 1 2 1 1 2 2 1 2 4 1 4
6 5 6 6 5 6 11 11 11 4 4 5 5 5 4 5 6 4 5 4 3 5 8 4 4 5 4 4 1 0 2 3 1 1 1 1 2 1 1 1 4 4 3
5 5 5 6 6 6 11 11 9 4 5 5 4 4 4 5 10 12 3 5 4 3 5 9 10 10 8 6 3 1 2 1 0 1 1 0 1 1 2 2 1 4 6
7 4 6 6 6 8 11 13 9 3 5 4 5 5 6 7 11 12 4 5 4 3 4 4 4 5 6 6 10 4 1 2 1 1 2 1 0 2 2 2 1 2 2
Wind_Direction
350 342 341 333 328 328 329 334 335 324 314 308 308 303 299 293 297 293 291 291 294 301 286 267 252 239 233 223 220 219 220 219 213 212 212 211 211 208 204 198 194 200 202
1 355 337 329 329 336 334 333 328 310 307 310 305 297 292 287 280 279 282 282 275 279 285 281 270 255 244 237 226 223 221 218 217 211 212 212 211 210 209 204 200 201 203
353 351 335 335 322 324 327 329 322 340 345 335 324 321 310 299 297 285 277 273 277 280 278 274 272 267 255 248 242 231 224 222 218 218 214 210 211 212 210 206 203 204 205
16 359 335 321 308 310 311 321 309 324 325 323 321 316 311 312 305 296 288 283 270 273 288 295 288 276 269 259 253 244 237 228 221 216 214 214 211 211 210 207 207 207 208
2 348 336 327 325 317 326 325 325 292 285 305 311 312 306 297 291 287 283 284 278 262 264 277 287 286 280 275 262 250 241 236 227 222 221 217 215 210 211 211 210 211 211
340 356 343 335 342 1 359 348 338 323 323 323 318 308 290 280 273 267 268 267 261 267 268 275 287 289 289 276 272 259 249 242 234 228 219 223 216 213 215 215 215 214 216
320 5 343 341 338 358 345 323 315 322 333 323 315 313 297 278 271 271 274 267 273 286 324 323 305 293 294 299 268 262 259 254 248 235 219 219 220 217 221 221 222 221 219
10 335 338 329 336 335 325 322 323 310 309 330 310 304 315 316 38 324 305 284 265 259 288 276 276 277 288 296 314 299 264 259 258 258 225 200 205 212 224 225 230 233 230
340 348 358 3 349 332 314 310 310 308 311 330 327 313 318 298 332 306 326 311 309 301 286 269 265 260 250 269 295 311 333 311 265 255 260 211 228 234 233 239 241 254 243
350 19 13 6 334 317 312 321 311 327 314 301 304 275 294 305 302 307 295 316 303 306 301 298 293 285 282 277 270 272 292 309 317 304 262 244 230 227 228 234 245 245 246
13 14 354 342 318 322 311 304 298 294 286 290 288 294 286 283 273 276 293 298 324 315 304 283 277 285 275 284 284 285 296 297 293 302 306 278 253 250 235 241 251 256 258
356 350 347 351 329 329 318 317 311 296 283 279 274 276 272 276 285 283 288 294 296 297 299 290 283 280 284 278 281 288 295 299 294 288 281 275 268 259 258 256 261 266 262
3 338 332 330 323 306 306 307 301 299 298 291 288 279 279 275 278 279 280 281 282 287 289 279 261 265 272 276 284 300 296 299 302 298 279 263 255 252 250 253 253 256 258
321 309 314 319 305 301 298 289 281 282 283 281 279 279 276 273 272 276 267 284 287 284 286 267 270 256 276 283 284 311 319 340 333 326 296 263 252 245 243 247 254 256 255
289 298 296 288 285 286 283 290 297 294 288 276 269 267 263 264 261 260 261 261 260 286 286 272 279 218 241 307 299 301 325 331 15 356 339 261 238 236 238 243 246 246 248
273 285 284 280 282 280 283 276 276 275 281 280 275 278 277 271 264 257 256 256 249 254 272 250 263 311 335 291 299 315 326 330 21 21 8 2 243 237 234 229 216 211 203
277 284 283 280 280 280 276 270 270 279 279 282 282 276 276 278 270 264 259 255 253 246 255 273 249 241 275 316 284 316 334 343 323 32 20 17 25 46 164 154 142 140 130
274 275 279 279 282 284 282 274 278 280 286 290 288 283 283 289 283 276 265 262 254 251 253 260 225 250 238 352 276 300 333 326 343 12 34 24 24 42 42 42 61 102 110
277 278 282 287 296 290 286 284 286 304 295 289 287 290 298 305 300 296 281 273 263 253 251 245 224 216 220 226 299 298 293 326 348 356 16 21 32 34 41 40 45 55 72
266 288 286 284 277 282 293 298 308 310 299 292 295 294 304 306 302 308 308 284 280 282 267 247 244 16 248 118 308 295 300 344 332 346 23 2 22 43 43 42 39 30 61
268 268 286 295 296 299 283 287 299 306 311 312 305 300 303 317 327 323 307 311 315 286 284 254 211 251 247 203 226 228 262 37 288 281 289 2 356 338 45 30 44 42 70
274 272 272 271 286 284 302 317 323 269 288 300 310 308 314 302 323 330 327 330 338 329 296 280 216 218 225 218 187 200 164 346 285 53 43 349 10 347 18 24 12 68 77
249 265 271 265 272 272 299 309 318 244 262 274 283 300 315 311 311 295 311 337 346 0 359 327 317 302 312 345 351 175 184 165 284 339 270 310 11 317 339 346 315 299 74
247 250 262 259 260 273 290 294 307 296 275 273 273 284 287 305 307 326 319 299 315 349 0 5 348 332 327 341 302 220 136 121 127 212 34 287 12 336 312 251 304 318 177
244 243 248 258 256 264 280 286 295 293 294 291 283 288 297 308 328 351 334 326 330 6 1 13 20 26 29 46 94 121 98 88 354 8 189 92 87 257 287 14 278 282 282
252 240 259 249 256 270 274 277 277 261 281 284 295 289 290 304 322 337 1 338 338 340 346 353 340 349 10 11 27 30 114 51 75 302 201 58 64 340 7 108 318 4 9